Карло-Либкнехтовск

Украина / Донецкая область     48˚42′00″N   38˚04′01″E
темп.,
°C
ветер,
м/с
пор.,
м/с
влажн.,
%
обл.,
%
осадки,
мм/ч
давл.,
гПа
погр.,
м
5 декабря, сб
сб523:00−3˚вюв712580 0.0 1034443
02:00−4˚в712600 0.0 1034425
05:00−4˚в713630 0.0 1034388
08:00−4˚в713550 0.0 1035413
11:00−1˚в712410 0.0 1035460
14:00−1˚в711370 0.0 1035526
17:00−3˚в713450 0.0 1035424
20:00−4˚в613490 0.0 1036410
6 декабря, вс
вс623:00−5˚в612490 0.0 1036385
02:00−6˚в612530 0.0 1037364
05:00−7˚в612590 0.0 1036375
08:00−7˚в612630 0.0 1037429
11:00−5˚в711620 0.0 1037484
14:00−4˚в711560 0.0 1036548
17:00−6˚в613670 0.0 1037524
20:00−7˚в713700 0.0 1037531
7 декабря, пн
пн723:00−7˚в713710 0.0 1037512
02:00−8˚в713700 0.0 1037495
05:00−8˚в814680 0.0 1036471
08:00−8˚в815660 0.0 1036477
11:00−5˚в914510 0.0 1036566
14:00−3˚в814440 0.0 1035633
17:00−5˚в815520 0.0 1035512
20:00−6˚в714590 0.0 1035500
8 декабря, вт
вт823:00−6˚в714590 0.0 1035469
02:00−7˚в715610 0.0 1034454
05:00−7˚в715610 0.0 1033444
08:00−7˚в816610 0.0 1033446
11:00−3˚в812480 0.0 1033516
14:00−2˚в813450 0.0 1032601
17:00−4˚в814540 0.0 1032524
20:00−5˚в714580 0.0 1032450
9 декабря, ср
ср923:00−6˚в713620 0.0 1032416
02:00−6˚в815665 0.0 1031457
05:00−5˚в8147693 0.0 1030487
08:00−5˚в8138193 0.0 1031535
11:00−2˚вюв6117899 0.1 1031662
14:00−1˚вюв6107999 0.1 1031656
17:00−2˚вюв61182100 0.0 1031545
20:00−2˚вюв61180100 0.0 1031533